Location: Unspecified
(0.0000°N, 0.0000°E)
Time: 06:09:55
(UTC+00:00)

Tiros 1 - Pass Details

Date: 10 October 2020
Orbit: 630 x 663 km, 48.4° (Epoch: 28 October)

Event Time Altitude Azimuth Distance (km) Brightness Sun altitude
Rises 06:21:11 0° 202° (SSW) 2,919 10.4 8.5°
Reaches altitude 10° 06:23:43 10° 191° (S) 2,007 9.7 9.1°
Maximum altitude 06:27:48 31° 129° (SE) 1,112 9.4 10.1°
Drops below altitude 10° 06:31:50 10° 67° (ENE) 1,997 10.9 11.1°
Sets 06:34:21 0° 57° (ENE) 2,903 11.4 11.8°
